| time (UTC) | temp F | wind direction | speed MPH | gust MPH | rain 1hr in | rain 24hr in | rain mn in | humidity % | barometer mb |
| 20260902154547 | 72 | 288 | 0.0 | 0.0 | 0.00 | 0.00 | 0.00 | 79 | 1016.0 |
| 20260902153044 | 70 | 288 | 0.0 | 0.0 | 0.00 | 0.00 | 0.00 | 82 | 1016.0 |
| 20260902151539 | 68 | 288 | 0.0 | 0.0 | 0.00 | 0.00 | 0.00 | 88 | 1016.0 |
| 20260902150035 | 67 | 289 | 0.0 | 0.0 | 0.00 | 0.00 | 0.00 | 89 | 1015.9 |
| 20260902144536 | 65 | 288 | 0.0 | 0.0 | 0.00 | 0.00 | 0.00 | 94 | 1015.9 |
| 20260902143030 | 63 | 289 | 0.0 | 0.0 | 0.00 | 0.00 | 0.00 | 97 | 1015.8 |
| 20260902141529 | 61 | 288 | 0.0 | 0.0 | 0.00 | 0.00 | 0.00 | 95 | 1015.6 |
| 20260902140028 | 60 | 288 | 0.0 | 0.0 | 0.00 | 0.00 | 0.00 | 94 | 1015.5 |
| 20260902134536 | 60 | 288 | 0.0 | 0.0 | 0.00 | 0.00 | 0.00 | 94 | 1015.4 |
| 20260902133028 | 60 | 288 | 0.0 | 0.0 | 0.00 | 0.00 | 0.00 | 94 | 1015.3 |
| 20260902131526 | 60 | 288 | 0.0 | 0.0 | 0.00 | 0.00 | 0.00 | 94 | 1015.2 |
| 20260902130025 | 61 | 288 | 0.0 | 0.0 | 0.00 | 0.00 | 0.00 | 94 | 1015.1 |
| 20260902124525 | 61 | 288 | 0.0 | 0.0 | 0.00 | 0.00 | 0.00 | 94 | 1015.1 |
| 20260902123025 | 61 | 289 | 0.0 | 0.0 | 0.00 | 0.00 | 0.00 | 94 | 1015.2 |
| 20260902121522 | 61 | 288 | 0.0 | 0.0 | 0.00 | 0.00 | 0.00 | 93 | 1015.1 |
| 20260902120022 | 61 | 288 | 0.0 | 0.0 | 0.00 | 0.00 | 0.00 | 94 | 1015.1 |
| 20260902114527 | 61 | 288 | 0.0 | 0.0 | 0.00 | 0.00 | 0.00 | 94 | 1015.3 |
| 20260902113032 | 61 | 288 | 0.0 | 0.0 | 0.00 | 0.00 | 0.00 | 93 | 1015.2 |
| 20260902111522 | 61 | 288 | 0.0 | 0.0 | 0.00 | 0.00 | 0.00 | 94 | 1015.3 |
| 20260902110018 | 61 | 288 | 0.0 | 0.0 | 0.00 | 0.00 | 0.00 | 93 | 1015.3 |
| 20260902104517 | 61 | 288 | 0.0 | 0.0 | 0.00 | 0.00 | 0.00 | 93 | 1015.3 |
| 20260902103026 | 61 | 288 | 0.0 | 0.0 | 0.00 | 0.00 | 0.00 | 92 | 1015.4 |
| 20260902101519 | 61 | 288 | 0.0 | 0.0 | 0.00 | 0.00 | 0.00 | 92 | 1015.5 |
| 20260902100017 | 61 | 288 | 0.0 | 0.0 | 0.00 | 0.00 | 0.00 | 92 | 1015.5 |
| 20260902094515 | 62 | 288 | 0.0 | 0.0 | 0.00 | 0.00 | 0.00 | 91 | 1015.5 |
| 20260902093012 | 62 | 288 | 0.0 | 0.0 | 0.00 | 0.00 | 0.00 | 91 | 1015.5 |
| 20260902091510 | 62 | 288 | 0.0 | 0.0 | 0.00 | 0.00 | 0.00 | 92 | 1015.6 |
| 20260902090009 | 63 | 289 | 0.0 | 0.0 | 0.00 | 0.00 | 0.00 | 91 | 1015.6 |
| 20260902084512 | 63 | 288 | 0.0 | 0.0 | 0.00 | 0.00 | 0.00 | 91 | 1015.6 |
| 20260902083008 | 63 | 288 | 0.0 | 0.0 | 0.00 | 0.00 | 0.00 | 91 | 1015.7 |
| 20260902081507 | 63 | 288 | 0.0 | 0.0 | 0.00 | 0.00 | 0.00 | 90 | 1015.8 |
| 20260902080005 | 63 | 288 | 0.0 | 0.0 | 0.00 | 0.00 | 0.00 | 90 | 1015.7 |
| 20260902074503 | 64 | 289 | 0.0 | 0.0 | 0.00 | 0.00 | 0.00 | 90 | 1015.6 |
| 20260902073002 | 64 | 288 | 0.0 | 0.0 | 0.00 | 0.00 | 0.00 | 89 | 1015.5 |
| 20260902071606 | 64 | 288 | 0.0 | 0.0 | 0.00 | 0.00 | 0.00 | 90 | 1015.4 |
| 20260902070057 | 64 | 288 | 0.0 | 0.0 | 0.00 | 0.00 | 0.00 | 89 | 1015.2 |
| 20260902064604 | 64 | 288 | 0.0 | 0.0 | 0.00 | 0.00 | 0.00 | 88 | 1015.2 |
| 20260902063054 | 64 | 288 | 0.0 | 0.0 | 0.00 | 0.00 | 0.00 | 87 | 1015.2 |
| 20260902061604 | 65 | 288 | 0.0 | 0.0 | 0.00 | 0.00 | 0.00 | 86 | 1015.2 |
| 20260902060054 | 65 | 289 | 0.0 | 0.0 | 0.00 | 0.00 | 0.00 | 85 | 1015.1 |
| 20260902054552 | 66 | 288 | 0.0 | 0.0 | 0.00 | 0.00 | 0.00 | 84 | 1015.0 |
| 20260902053049 | 67 | 288 | 0.0 | 0.0 | 0.00 | 0.00 | 0.00 | 84 | 1015.0 |
| 20260902051547 | 67 | 288 | 0.0 | 0.0 | 0.00 | 0.00 | 0.00 | 84 | 1015.0 |
| 20260902050057 | 68 | 289 | 0.0 | 0.0 | 0.00 | 0.00 | 0.00 | 83 | 1015.0 |
| 20260902044547 | 69 | 288 | 0.0 | 0.0 | 0.00 | 0.00 | 0.00 | 82 | 1014.9 |
| 20260902043047 | 69 | 288 | 0.0 | 0.0 | 0.00 | 0.00 | 0.00 | 82 | 1014.6 |
| 20260902041545 | 69 | 288 | 1.0 | 7.0 | 0.00 | 0.00 | 0.00 | 82 | 1014.4 |
| 20260902040045 | 69 | 284 | 3.0 | 8.0 | 0.00 | 0.00 | 0.00 | 82 | 1014.2 |
| 20260902034545 | 69 | 267 | 5.0 | 10.0 | 0.00 | 0.00 | 0.00 | 82 | 1013.9 |
| 20260902033046 | 69 | 284 | 6.0 | 12.0 | 0.00 | 0.00 | 0.00 | 82 | 1013.8 |
| 20260902031543 | 70 | 269 | 7.0 | 13.0 | 0.00 | 0.00 | 0.00 | 81 | 1013.6 |
| 20260902030043 | 70 | 282 | 8.0 | 15.0 | 0.00 | 0.00 | 0.00 | 81 | 1013.5 |
| 20260902024542 | 70 | 281 | 9.0 | 14.0 | 0.00 | 0.00 | 0.00 | 81 | 1013.4 |
| 20260902023045 | 70 | 271 | 6.0 | 12.0 | 0.00 | 0.00 | 0.00 | 81 | 1013.3 |
| 20260902021543 | 71 | 263 | 8.0 | 14.0 | 0.00 | 0.00 | 0.00 | 81 | 1013.4 |
| 20260902020040 | 71 | 253 | 10.0 | 18.0 | 0.00 | 0.00 | 0.00 | 81 | 1013.5 |
| 20260902014543 | 72 | 289 | 11.0 | 18.0 | 0.00 | 0.00 | 0.00 | 79 | 1013.4 |
| 20260902013037 | 72 | 273 | 9.0 | 16.0 | 0.00 | 0.00 | 0.00 | 80 | 1013.3 |
| 20260902011543 | 73 | 308 | 12.0 | 18.0 | 0.00 | 0.00 | 0.00 | 78 | 1013.4 |
| 20260902010034 | 74 | 241 | 12.0 | 20.0 | 0.00 | 0.00 | 0.00 | 76 | 1013.5 |
| 20260902004533 | 74 | 265 | 10.0 | 20.0 | 0.00 | 0.00 | 0.00 | 77 | 1013.6 |
| 20260902003031 | 75 | 242 | 9.0 | 18.0 | 0.00 | 0.00 | 0.00 | 77 | 1013.6 |
| 20260902001529 | 75 | 234 | 10.0 | 20.0 | 0.00 | 0.00 | 0.00 | 76 | 1013.7 |
| 20260902000028 | 76 | 271 | 8.0 | 18.0 | 0.00 | 0.00 | 0.00 | 75 | 1013.8 |
| 20260901234527 | 76 | 273 | 13.0 | 19.0 | 0.00 | 0.00 | 0.00 | 75 | 1013.9 |
| 20260901233026 | 77 | 274 | 12.0 | 18.0 | 0.00 | 0.00 | 0.00 | 74 | 1013.9 |
| 20260901231526 | 77 | 269 | 8.0 | 19.0 | 0.00 | 0.00 | 0.00 | 74 | 1013.9 |
| 20260901230025 | 77 | 266 | 9.0 | 14.0 | 0.00 | 0.00 | 0.00 | 73 | 1013.9 |
| 20260901224524 | 77 | 269 | 7.0 | 17.0 | 0.00 | 0.00 | 0.00 | 74 | 1014.1 |
| 20260901223024 | 77 | 289 | 11.0 | 17.0 | 0.00 | 0.00 | 0.00 | 73 | 1014.1 |
| 20260901221523 | 77 | 244 | 8.0 | 18.0 | 0.00 | 0.00 | 0.00 | 74 | 1014.2 |
| 20260901220022 | 78 | 234 | 8.0 | 17.0 | 0.00 | 0.00 | 0.00 | 74 | 1014.4 |
| 20260901214537 | 78 | 271 | 9.0 | 17.0 | 0.00 | 0.00 | 0.00 | 72 | 1014.6 |
| 20260901213021 | 78 | 279 | 7.0 | 17.0 | 0.00 | 0.00 | 0.00 | 72 | 1014.7 |
| 20260901211522 | 78 | 266 | 7.0 | 16.0 | 0.00 | 0.00 | 0.00 | 73 | 1014.8 |
| 20260901210020 | 77 | 239 | 8.0 | 16.0 | 0.00 | 0.00 | 0.00 | 72 | 1014.9 |
| 20260901204522 | 77 | 281 | 11.0 | 17.0 | 0.00 | 0.00 | 0.00 | 71 | 1014.9 |
| 20260901203018 | 78 | 286 | 9.0 | 15.0 | 0.00 | 0.00 | 0.00 | 71 | 1014.9 |
| 20260901201517 | 78 | 241 | 10.0 | 15.0 | 0.00 | 0.00 | 0.00 | 70 | 1015.1 |
| 20260901200017 | 78 | 265 | 8.0 | 15.0 | 0.00 | 0.00 | 0.00 | 72 | 1015.2 |
| 20260901194514 | 77 | 279 | 7.0 | 14.0 | 0.00 | 0.00 | 0.00 | 72 | 1015.3 |
| 20260901193012 | 77 | 253 | 6.0 | 14.0 | 0.00 | 0.00 | 0.00 | 72 | 1015.4 |
| 20260901191525 | 77 | 234 | 5.0 | 12.0 | 0.00 | 0.00 | 0.00 | 72 | 1015.6 |
| 20260901190010 | 77 | 292 | 7.0 | 13.0 | 0.00 | 0.00 | 0.00 | 71 | 1015.6 |
| 20260901184508 | 77 | 275 | 7.0 | 11.0 | 0.00 | 0.00 | 0.00 | 73 | 1015.7 |
| 20260901183007 | 76 | 261 | 5.0 | 11.0 | 0.00 | 0.00 | 0.00 | 74 | 1015.8 |
| 20260901181507 | 77 | 230 | 5.0 | 9.0 | 0.00 | 0.00 | 0.00 | 73 | 1015.7 |
| 20260901180005 | 77 | 250 | 4.0 | 11.0 | 0.00 | 0.00 | 0.00 | 73 | 1015.8 |
| 20260901174504 | 76 | 244 | 3.0 | 8.0 | 0.00 | 0.00 | 0.00 | 74 | 1015.8 |
| 20260901173002 | 77 | 271 | 4.0 | 10.0 | 0.00 | 0.00 | 0.00 | 73 | 1015.7 |
| 20260901171603 | 77 | 258 | 3.0 | 10.0 | 0.00 | 0.00 | 0.00 | 73 | 1015.6 |
| 20260901170056 | 76 | 268 | 3.0 | 10.0 | 0.00 | 0.00 | 0.00 | 73 | 1015.5 |
| 20260901164551 | 76 | 242 | 2.0 | 9.0 | 0.00 | 0.00 | 0.00 | 74 | 1015.4 |
| 20260901163055 | 76 | 261 | 1.0 | 7.0 | 0.00 | 0.00 | 0.00 | 75 | 1015.3 |
| 20260901161548 | 75 | 229 | 0.0 | 5.0 | 0.00 | 0.00 | 0.00 | 75 | 1015.2 |
| 20260901160044 | 76 | 263 | 3.0 | 8.0 | 0.00 | 0.00 | 0.00 | 74 | 1015.3 |